International Virtual Aviation Organisation

Russian Federation and Kazakhstan MCD

 

Карточка аэропорта UIBB

Внимание!
Информация на этой странице в стадии наполнения.
Если вы не увидели какой-то информации, или заметили неточность - пожалуйста сообщите нам!
Спасибо!
Команда RU-STAFF
Название аэропортаБратск
Название аэропорта (англ.)Bratsk
Превышение1598 ft. (487.1 m.)
Координаты56°22.236', 101°41.94'
Высота перехода900m
Эшелон переходаQFE>=715mm:FL060; QFE<715=>688:FL070; QFE<688:FL080
Коды ответчика3301-3327
Зона ОрВДИркутск РПИ (UIII)
Данные METARUIBB 091400Z 34003MPS 9999 NSC 19/08 Q1006 R30/CLRD60 NOSIG RMK QFE712/0949
Проноз погоды (TAF)UIBB 091400Z 0915/1015 32003MPS 9999 SCT020CB BECMG 1003/1005 02005G10MPS
NOTAMshow/hide NOTAM
AWOS   TABLE

Информация о ВПП


Диспетчерские позиции

Позывной Наименование органа УВД Частота
UIBB_APPБратск-Подход118.1
UIBB_GNDБратск-Руление121.8



Спутниковое изображение